CW0962 Weather Reports


time (UTC)temp
C
wind
direction
speed
KPH
gust
KPH
rain 1hr
cm
rain 24hr
cm
rain mn
cm
humidity
%
barometer
mb
20260505091506 10 191 6.4 14.5 0.00 0.00 0.00 85 1009.5
20260505091003 10 161 6.4 16.1 0.00 0.00 0.00 86 1009.5
20260505090501 10 138 8.0 24.1 0.00 0.00 0.00 85 1009.4
20260505090032 10 165 9.7 24.1 0.00 0.00 0.00 86 1009.4
20260505085502 10 181 8.0 16.1 0.00 0.00 0.00 86 1009.4
20260505085003 10 146 6.4 17.7 0.00 0.00 0.00 86 1009.4
20260505084005 10 179 6.4 17.7 0.00 0.00 0.00 85 1009.5
20260505083509 10 165 8.0 25.7 0.00 0.00 0.00 85 1009.5
20260505082959 10 175 8.0 25.7 0.00 0.00 0.00 85 1009.4
20260505082457 10 154 8.0 19.3 0.00 0.00 0.00 85 1009.4
20260505082004 10 191 6.4 14.5 0.00 0.00 0.00 85 1009.4
20260505081501 10 154 6.4 14.5 0.00 0.00 0.00 85 1009.4
20260505081011 10 101 6.4 16.1 0.00 0.00 0.00 85 1009.6
20260505080507 10 172 6.4 16.1 0.00 0.00 0.00 85 1009.5
20260505080025 10 209 6.4 16.1 0.00 0.00 0.00 85 1009.5
20260505075537 10 157 6.4 16.1 0.00 0.00 0.00 85 1009.6
20260505075021 10 119 6.4 14.5 0.00 0.00 0.00 85 1009.5
20260505074458 10 168 6.4 12.9 0.00 0.00 0.00 85 1009.7
20260505073959 10 155 6.4 14.5 0.00 0.00 0.00 85 1009.8
20260505073011 10 164 6.4 16.1 0.00 0.00 0.00 84 1009.7
20260505072515 10 140 4.8 16.1 0.00 0.00 0.00 84 1009.7
20260505072005 10 154 3.2 12.9 0.00 0.00 0.00 84 1009.7
20260505070459 10 152 6.4 11.3 0.00 0.00 0.00 84 1009.6
20260505070008 10 154 4.8 11.3 0.00 0.00 0.00 83 1009.6
20260505065525 10 160 4.8 11.3 0.00 0.00 0.00 83 1009.7
20260505065002 10 223 6.4 14.5 0.00 0.00 0.00 83 1009.7
20260505064502 10 124 4.8 14.5 0.00 0.00 0.00 83 1009.7
20260505063959 10 179 4.8 12.9 0.00 0.00 0.00 83 1009.6
20260505063459 10 168 4.8 12.9 0.00 0.00 0.00 82 1009.8
20260505063004 10 190 4.8 17.7 0.00 0.00 0.00 82 1009.7
20260505062516 10 212 4.8 17.7 0.00 0.00 0.00 82 1009.7
20260505062002 10 180 4.8 17.7 0.00 0.00 0.00 81 1009.7
20260505061500 10 170 6.4 14.5 0.00 0.00 0.00 81 1009.7
20260505060509 10 160 4.8 14.5 0.00 0.00 0.00 80 1009.7
20260505060020 10 132 4.8 17.7 0.00 0.00 0.00 80 1009.7
20260505055517 10 171 6.4 17.7 0.00 0.00 0.00 80 1009.7
20260505055000 10 128 6.4 16.1 0.00 0.00 0.00 80 1009.7
20260505054504 10 170 6.4 14.5 0.00 0.00 0.00 80 1009.7
20260505054027 10 165 6.4 14.5 0.00 0.00 0.00 80 1009.6
20260505053501 10 185 6.4 14.5 0.00 0.00 0.00 79 1009.6
20260505052507 10 159 6.4 16.1 0.00 0.00 0.00 79 1009.6
20260505052006 11 136 6.4 16.1 0.00 0.00 0.00 78 1009.7
20260505051509 11 195 8.0 19.3 0.00 0.00 0.00 78 1009.7
20260505051019 11 205 8.0 19.3 0.00 0.00 0.00 78 1009.8
20260505041518 11 168 8.0 24.1 0.00 0.00 0.00 74 1009.9
20260505041002 11 153 8.0 24.1 0.00 0.00 0.00 73 1009.8
20260505040520 11 179 8.0 25.7 0.00 0.00 0.00 73 1009.8
20260505040030 11 150 9.7 25.7 0.00 0.00 0.00 73 1009.8
20260505035542 11 127 8.0 17.7 0.00 0.00 0.00 73 1009.8
20260505035023 11 159 6.4 20.9 0.00 0.00 0.00 73 1009.8
20260505034522 11 163 8.0 20.9 0.00 0.00 0.00 73 1009.8
20260505033514 11 198 6.4 22.5 0.00 0.00 0.00 73 1009.9
20260505032512 11 246 9.7 19.3 0.00 0.00 0.00 73 1010.0
20260505032006 11 188 9.7 24.1 0.00 0.00 0.00 73 1010.0
20260505031504 11 202 9.7 24.1 0.00 0.00 0.00 73 1010.0
20260505031000 11 169 8.0 20.9 0.00 0.00 0.00 73 1010.0
20260505030506 11 192 8.0 20.9 0.00 0.00 0.00 72 1009.9
20260505030022 11 128 9.7 25.7 0.00 0.00 0.00 72 1010.0
20260505025022 11 219 9.7 24.1 0.00 0.00 0.00 71 1010.0
20260505024511 11 177 9.7 24.1 0.00 0.00 0.00 71 1010.1
20260505024007 11 156 9.7 19.3 0.00 0.00 0.00 71 1010.0
20260505023514 11 217 9.7 20.9 0.00 0.00 0.00 71 1010.1
20260505023004 11 192 9.7 22.5 0.00 0.00 0.00 71 1010.0
20260505022512 11 165 9.7 22.5 0.00 0.00 0.00 71 1010.0
20260505022023 11 157 9.7 30.6 0.00 0.00 0.00 70 1010.0
20260505020525 12 157 9.7 25.7 0.00 0.00 0.00 70 1010.0
20260505020015 12 176 9.7 25.7 0.00 0.00 0.00 69 1010.0
20260505015008 12 143 8.0 29.0 0.00 0.00 0.00 69 1009.9
20260505014510 12 194 8.0 29.0 0.00 0.00 0.00 68 1009.9
20260505013504 12 184 9.7 24.1 0.00 0.00 0.00 67 1009.7
20260505013011 12 198 11.3 24.1 0.00 0.00 0.00 67 1009.7
20260505012501 12 182 11.3 24.1 0.00 0.00 0.00 66 1009.6
20260505012005 12 167 9.7 20.9 0.00 0.00 0.00 66 1009.6
20260505011550 12 207 9.7 30.6 0.00 0.00 0.00 65 1009.5
20260505011017 12 167 9.7 32.2 0.00 0.00 0.00 65 1009.4
20260505010507 12 210 11.3 32.2 0.00 0.00 0.00 64 1009.3
20260505005515 13 172 14.5 43.5 0.00 0.00 0.00 64 1009.1
20260505005033 13 171 11.3 33.8 0.00 0.00 0.00 64 1009.1
20260505004458 13 212 9.7 35.4 0.00 0.00 0.00 63 1009.0
20260505004003 13 206 11.3 35.4 0.00 0.00 0.00 63 1009.0
20260505003459 13 168 12.9 32.2 0.00 0.00 0.00 62 1008.8
20260505002516 13 186 9.7 32.2 0.00 0.00 0.00 61 1008.6
20260505001505 13 223 12.9 33.8 0.00 0.00 0.00 59 1008.4
20260505001004 13 204 12.9 33.8 0.00 0.00 0.00 58 1008.4
20260505000501 13 188 12.9 32.2 0.00 0.00 0.00 57 1008.2
20260505000006 13 182 11.3 32.2 0.00 0.00 0.00 57 1008.2
20260504235517 13 219 12.9 24.1 0.00 0.00 0.00 57 1008.2
20260504235015 13 205 11.3 24.1 0.00 0.00 0.00 56 1008.1
20260504234501 13 194 9.7 29.0 0.00 0.00 0.00 54 1008.2
20260504234004 14 181 9.7 29.0 0.00 0.00 0.00 54 1008.1
20260504233459 14 213 9.7 29.0 0.00 0.00 0.00 53 1008.1
20260504233038 14 211 12.9 45.1 0.00 0.00 0.00 52 1008.0
20260504232502 15 166 12.9 45.1 0.00 0.00 0.00 50 1007.9
20260504232021 15 131 12.9 29.0 0.00 0.00 0.00 50 1007.8
20260504231510 15 231 11.3 29.0 0.00 0.00 0.00 49 1007.8
20260504231027 15 178 11.3 32.2 0.00 0.00 0.00 48 1007.7
20260504230508 15 168 12.9 32.2 0.00 0.00 0.00 47 1007.6
20260504225502 15 192 9.7 25.7 0.00 0.00 0.00 45 1007.7
20260504224003 16 155 11.3 25.7 0.00 0.00 0.00 44 1007.3
20260504223501 16 173 12.9 33.8 0.00 0.00 0.00 44 1007.2
20260504223002 16 178 16.1 35.4 0.00 0.00 0.00 42 1007.2
20260504222028 16 134 11.3 45.1 0.00 0.00 0.00 42 1007.3
20260504221509 16 151 12.9 45.1 0.00 0.00 0.00 41 1007.1
20260504221001 16 163 14.5 32.2 0.00 0.00 0.00 41 1007.2
20260504220508 16 215 14.5 32.2 0.00 0.00 0.00 40 1007.2
20260504220051 17 235 14.5 45.1 0.00 0.00 0.00 40 1007.2
20260504215501 17 177 14.5 45.1 0.00 0.00 0.00 40 1007.2
20260504215001 17 242 14.5 30.6 0.00 0.00 0.00 40 1007.1
20260504214505 17 155 14.5 40.2 0.00 0.00 0.00 40 1007.0
20260504214023 17 165 14.5 40.2 0.00 0.00 0.00 40 1007.1
20260504213007 17 290 12.9 32.2 0.00 0.00 0.00 39 1007.0
20260504212501 17 149 14.5 37.0 0.00 0.00 0.00 38 1007.0
20260504212009 17 56 16.1 37.0 0.00 0.00 0.00 38 1006.8
20260504211514 18 194 16.1 35.4 0.00 0.00 0.00 38 1006.9
20260504210504 18 188 12.9 41.8 0.00 0.00 0.00 36 1007.0
20260504210004 18 172 12.9 35.4 0.00 0.00 0.00 36 1007.0
20260504205509 18 156 14.5 35.4 0.00 0.00 0.00 34 1006.7
20260504205007 18 202 14.5 45.1 0.00 0.00 0.00 33 1006.9
20260504204500 19 191 14.5 45.1 0.00 0.00 0.00 32 1006.7
20260504204011 19 138 12.9 35.4 0.00 0.00 0.00 33 1006.7
20260504203503 19 166 16.1 43.5 0.00 0.00 0.00 33 1006.8
20260504203007 19 110 14.5 43.5 0.00 0.00 0.00 31 1006.7
20260504202505 19 96 16.1 43.5 0.00 0.00 0.00 31 1006.6
20260504202021 18 164 17.7 49.9 0.00 0.00 0.00 31 1006.7
20260504201510 19 186 16.1 49.9 0.00 0.00 0.00 31 1006.7
20260504201020 19 184 17.7 43.5 0.00 0.00 0.00 31 1006.6
20260504200509 19 177 20.9 46.7 0.00 0.00 0.00 31 1006.7
20260504200104 19 173 17.7 46.7 0.00 0.00 0.00 31 1006.6
20260504195006 19 244 17.7 41.8 0.00 0.00 0.00 31 1006.7
20260504194503 20 155 16.1 41.8 0.00 0.00 0.00 30 1006.7
20260504194005 20 167 16.1 41.8 0.00 0.00 0.00 30 1006.7
20260504193109 20 180 16.1 46.7 0.00 0.00 0.00 30 1006.7
20260504174011 21 192 12.9 38.6 0.00 0.00 0.00 29 1006.6
20260504173126 20 151 16.1 40.2 0.00 0.00 0.00 28 1006.9
20260504172504 20 136 14.5 35.4 0.00 0.00 0.00 30 1006.7
20260504172028 21 178 14.5 41.8 0.00 0.00 0.00 29 1007.0
20260504171510 21 210 14.5 41.8 0.00 0.00 0.00 29 1007.1
20260504171021 21 169 16.1 41.8 0.00 0.00 0.00 27 1007.1
20260504170507 20 190 14.5 41.8 0.00 0.00 0.00 27 1007.2
20260504151028 19 183 11.3 32.2 0.00 0.03 0.00 34 1008.2
20260504141026 18 221 9.7 24.1 0.00 0.03 0.00 39 1009.0
20260504140501 17 209 8.0 19.3 0.00 0.03 0.00 37 1009.0
20260504130511 15 190 6.4 19.3 0.00 0.03 0.00 43 1009.3
20260504100508 7 156 4.8 14.5 0.00 0.03 0.00 63 1009.5